Weather History for Birmingham, United Kingdom

Change the Weather History Date:

Friday, January 31, 2014

  Actual Average Record
Temperature  
Mean Temperature 40 °F -  
Max Temperature 46 °F 43 °F 53 °F (2000)
Min Temperature 33 °F 32 °F 15 °F (2011)
Degree Days  
Heating Degree Days 26    
Moisture  
Dew Point 39 °F    
Average Humidity 95    
Maximum Humidity 100    
Minimum Humidity 93    
Precipitation  
Precipitation 0.00 in 0.06 in - ()
Sea Level Pressure  
Sea Level Pressure 29.34 in    
Wind  
Wind Speed 10 mph ()    
Max Wind Speed 22 mph    
Max Gust Speed -    
Visibility 3.9 miles    
Events Rain    
Averages and records for this station are not official NWS values.
T = Trace of Precipitation, MM = Missing Value Source: Averaged Metar Reports

Daily Weather History Graph

Daily Weather History Graph

Search for Another Location

Airport:

Trip Planner

Search our weather history database for the weather conditions in past years. The results will help you decide how hot, cold, wet, or windy it might be!

Date:

Astronomy

Jan. 31, 2014 Rise Set
Actual Time 7:50 AM GMT 4:51 PM GMT
Civil Twilight 7:13 AM GMT 5:28 PM GMT
Nautical Twilight 6:31 AM GMT 6:09 PM GMT
Astronomical Twilight 5:51 AM GMT 6:49 PM GMT
Moon 7:38 AM GMT (1/31) 6:12 PM GMT (1/31)
Length of Visible Light 10h 15m
Length of Day
9h 01m
New Moon, 1% of the Moon is Illuminated
Jan 31
New Moon
Feb 6
First Quarter
Feb 14
Full
Feb 22
Last Quarter
Mar 1
New

Hourly Weather History & Observations

Time (GMT) Temp. Windchill Dew Point Humidity Pressure Visibility Wind Dir Wind Speed Gust Speed Precip Events Conditions
12:20 AM 37.4 °F 34.9 °F 37.4 °F 100% 29.62 in 0.8 mi SSW 3.5 mph - N/A   Overcast
12:50 AM 37.4 °F 32.1 °F 37.4 °F 100% 29.62 in 0.6 mi SW 6.9 mph - N/A   Overcast
1:20 AM 35.6 °F 30.7 °F 35.6 °F 100% 29.62 in 2.2 mi SSW 5.8 mph - N/A   Overcast
1:50 AM 35.6 °F 29.2 °F 35.6 °F 100% 29.65 in - WSW 8.1 mph - N/A   Overcast
2:20 AM 35.6 °F 30.7 °F 33.8 °F 93% 29.65 in 1.6 mi South 5.8 mph - N/A   Overcast
2:50 AM 35.6 °F 30.7 °F 33.8 °F 93% 29.65 in 1.6 mi South 5.8 mph - N/A   Overcast
3:20 AM 35.6 °F 29.9 °F 33.8 °F 93% 29.62 in 1.4 mi SSE 6.9 mph - N/A   Overcast
3:50 AM 35.6 °F 30.7 °F 35.6 °F 100% 29.62 in 1.4 mi South 5.8 mph - N/A   Overcast
4:20 AM 35.6 °F 29.2 °F 33.8 °F 93% 29.62 in 5.6 mi South 8.1 mph - N/A   Overcast
4:50 AM 35.6 °F 29.9 °F 33.8 °F 93% 29.59 in 3.7 mi South 6.9 mph - N/A   Overcast
5:20 AM 35.6 °F 28.6 °F 33.8 °F 93% 29.59 in 3.1 mi South 9.2 mph - N/A   Overcast
5:50 AM 35.6 °F 28.0 °F 33.8 °F 93% 29.59 in 5.0 mi South 10.4 mph - N/A   Mostly Cloudy
6:20 AM 33.8 °F 25.8 °F 33.8 °F 100% 29.59 in 4.3 mi South 10.4 mph - N/A   Overcast
6:50 AM 33.8 °F 25.8 °F 33.8 °F 100% 29.56 in 3.7 mi South 10.4 mph - N/A   Mostly Cloudy
7:20 AM 35.6 °F 28.6 °F 33.8 °F 93% 29.56 in 4.3 mi South 9.2 mph - N/A   Mostly Cloudy
7:50 AM 35.6 °F 27.5 °F 33.8 °F 93% 29.56 in 3.7 mi SSE 11.5 mph - N/A   Mostly Cloudy
8:20 AM 35.6 °F 26.2 °F 33.8 °F 93% 29.53 in 3.7 mi South 15.0 mph - N/A   Mostly Cloudy
8:50 AM 35.6 °F 27.5 °F 33.8 °F 93% 29.53 in 3.1 mi SSE 11.5 mph - N/A   Overcast
9:20 AM 35.6 °F 27.5 °F 35.6 °F 100% 29.50 in 2.5 mi SSE 11.5 mph - N/A   Overcast
9:50 AM 37.4 °F 28.5 °F 35.6 °F 93% 29.47 in 2.5 mi SSE 15.0 mph - N/A   Mostly Cloudy
10:20 AM 37.4 °F 28.2 °F 37.4 °F 100% 29.44 in 2.2 mi SSE 16.1 mph - N/A   Overcast
10:50 AM 39.2 °F 30.8 °F 37.4 °F 93% 29.42 in - SSE 15.0 mph - N/A   Mostly Cloudy
11:20 AM 39.2 °F 31.2 °F 39.2 °F 100% 29.42 in 3.7 mi SSE 13.8 mph - N/A   Mostly Cloudy
11:50 AM 41.0 °F 32.5 °F 39.2 °F 93% 29.39 in - SSE 17.3 mph - N/A Rain Rain
12:20 PM 41.0 °F 32.8 °F 39.2 °F 93% 29.39 in 3.7 mi SSE 16.1 mph - N/A Rain Rain
12:50 PM 41.0 °F 32.8 °F 39.2 °F 93% 29.36 in 3.7 mi SSE 16.1 mph - N/A Rain Rain
1:20 PM 41.0 °F 32.5 °F 41.0 °F 100% 29.33 in 2.5 mi SE 17.3 mph - N/A Rain Rain
1:50 PM 41.0 °F 31.9 °F 41.0 °F 100% 29.27 in 2.5 mi SSE 19.6 mph - N/A Rain Rain
2:20 PM 42.8 °F 34.0 °F 41.0 °F 93% 29.27 in 2.5 mi SSE 20.7 mph - N/A Rain Rain
2:50 PM 42.8 °F 33.8 °F 41.0 °F 93% 29.24 in 3.1 mi SSE 21.9 mph - N/A Rain Light Rain
3:20 PM 42.8 °F 34.0 °F 41.0 °F 93% 29.21 in 3.7 mi South 20.7 mph - N/A Rain Light Rain
3:50 PM 42.8 °F 34.0 °F 41.0 °F 93% 29.18 in 3.7 mi South 20.7 mph - N/A Rain Light Rain
4:20 PM 42.8 °F 33.8 °F 41.0 °F 93% 29.15 in 3.7 mi South 21.9 mph - N/A Rain Light Rain
4:50 PM 42.8 °F 34.0 °F 41.0 °F 93% 29.15 in 6.2 mi SSE 20.7 mph - N/A   Overcast
5:20 PM 42.8 °F 34.0 °F 41.0 °F 93% 29.12 in 6.2 mi South 20.7 mph - N/A Rain Light Rain
5:50 PM 44.6 °F 36.1 °F 42.8 °F 93% 29.09 in 6.2 mi South 21.9 mph - N/A Rain Light Rain
6:20 PM 44.6 °F 36.1 °F 42.8 °F 93% 29.06 in 6.2 mi SSE 21.9 mph - N/A   Mostly Cloudy
6:50 PM 44.6 °F 36.4 °F 42.8 °F 93% 29.06 in 6.2 mi South 20.7 mph - N/A   Mostly Cloudy
7:20 PM 44.6 °F 37.2 °F 42.8 °F 93% 29.06 in - South 17.3 mph - N/A Rain Light Rain
7:50 PM 44.6 °F 37.8 °F 44.6 °F 100% 29.03 in 3.7 mi South 15.0 mph - N/A Rain Light Rain
8:20 PM 44.6 °F 38.1 °F 44.6 °F 100% 29.03 in 5.0 mi South 13.8 mph - N/A Rain Light Rain
8:50 PM 46.4 °F 41.9 °F 44.6 °F 93% 29.00 in 6.2 mi South 9.2 mph - N/A Rain Light Rain
9:20 PM 46.4 °F 41.5 °F 44.6 °F 93% 29.00 in 6.2 mi South 10.4 mph - N/A   Mostly Cloudy
9:50 PM 46.4 °F 41.9 °F 46.4 °F 100% 29.00 in 3.7 mi South 9.2 mph - N/A Rain Light Rain
10:20 PM 46.4 °F 42.9 °F 46.4 °F 100% 29.00 in 6.2 mi South 6.9 mph - N/A   Overcast
10:50 PM 46.4 °F 41.9 °F 44.6 °F 93% 28.97 in 6.2 mi SSW 9.2 mph - N/A   Scattered Clouds
11:20 PM 44.6 °F 40.2 °F 44.6 °F 100% 28.97 in 6.2 mi South 8.1 mph - N/A   Scattered Clouds
11:50 PM 46.4 °F 41.5 °F 44.6 °F 93% 28.97 in 6.2 mi SSW 10.4 mph - N/A   Partly Cloudy